星链-34507 (STARLINK-34507)
导读
STARLINK-34507是美国SpaceX星链互联网星座的一员,于2025年6月17日发射入轨。星链项目旨在为全球提供低延迟、高速率的卫星宽带互联网覆盖,该卫星承担着扩展星座服务范围、增强网络容量的任务,推动全球偏远地区与网络基础设施薄弱区域接入互联网,助力全球互联网络覆盖进一步完善。
Basic Information
目录编号:
64437
目录名称:
STARLINK-34507
国际标识:
2025-129AB
轨道中心:
EARTH
卫星名称:
星链-34507
卫星全名:
星链-34507 (STARLINK-34507)
卫星状态:
在轨 (已飞行444 天)
发射日期:
2025-06-17 UTC
国别 :
美国
(US)
星等 :
--
Orbit Information
| 数据来源 | 国际轨道数据 |
| 星历时间: | 2026-09-04T14:00:02+0800 8小时前 查看轨道信息 |
| 半长轴: | 6876.599km |
| 偏心率: | 0.0002014 |
| 轨道倾角: | 70.002° |
| 近地点辐角 | 299.415° |
| 升交点赤经 | 343.811° |
| 平近点角 | 113.233° |
| 近地点: | 497.077km |
| 远地点: | 499.847km |
| 周期: | 94.585分钟 |
| 每日圈数: | 15.224474 |
Detailed Information
固有亮度:
5
最大亮度:
2.5
卫星平台:
Starlink V1.0
覆盖范围:
全球
运营商:
太空探索技术公司
运营商所在国:
美国
制造商(研发单位):
太空探索技术公司
制造商所在国:
美国
使用方式:
暂无
Satellite Introduction
Starlink 计划是 SpaceX 推出的全球卫星互联网项目,通过发射低轨道卫星,为全球尤其是偏远地区提供高速、低延迟的互联网服务。自 2019 年起,Starlink 已部署数千颗卫星,旨在缩小全球数字鸿沟,推动互联网普及。该项目还为军事、航空等行业提供通信支持,带来广泛经济效益。
2D Orbit Map
3D Orbit Map
Orbit Altitude Analysis Chart
Orbit Inclination Analysis Chart
Orbit Comprehensive Analysis Chart
View Comprehensive ChartConjunction Data List
| Event ID | Objects | TCA | Miss Dist (km) | Collision Risk Probability | Collision Risk Index (CRI) | Action |
|---|---|---|---|---|---|---|
| CDM_260905-132505-737406-443721 |
STARLINK-6369
(57374)
STARLINK-34507
(64437) | 2026-09-05T 13:25:47+0000 |
1.175 km
极远距离 | 8.670586E-6 低风险 | 0.54 | |
| CDM_260905-173806-443706-566121 |
STARLINK-34507
(64437)
STARLINK-35220
(65661) | 2026-09-05T 17:38:45+0000 |
1.570 km
极远距离 | 3.595989E-6 低风险 | 0.46 | |
| CDM_260830-104606-388106-443721 |
STARLINK-33905
(63881)
STARLINK-34507
(64437) | 2026-08-30T 10:46:06+0000 |
2.624 km
极远距离 | 1.566265E-6 低风险 | 0.39 | |
| CDM_260905-084206-197706-443721 |
STARLINK-32607
(61977)
STARLINK-34507
(64437) | 2026-09-05T 08:42:46+0000 |
2.458 km
极远距离 | 1.411306E-6 低风险 | 0.38 | |
| CDM_260905-233205-893406-443721 |
STARLINK-31337
(58934)
STARLINK-34507
(64437) | 2026-09-05T 23:32:28+0000 |
2.927 km
极远距离 | 1.27657E-6 低风险 | 0.37 | |
| CDM_260905-160306-443706-933021 |
STARLINK-34507
(64437)
STARLINK-37772
(69330) | 2026-09-05T 16:03:04+0000 |
2.540 km
极远距离 | 1.22884E-6 低风险 | 0.37 | |
| CDM_260901-102204-275806-443721 |
HXMT
(42758)
STARLINK-34507
(64437) | 2026-09-01T 10:22:36+0000 |
2.891 km
极远距离 | 1.211258E-6 低风险 | 0.37 |

